Flora, IL

3:23 PM CDT on September 26, 2017 (GMT -0500)
Flora Municipal

Weather History for KFOA - December, 2013

Change the Weather History Date:

Saturday, December 28, 2013

  Actual Average (KSLO) Record (KSLO)
Temperature  
Mean Temperature 38 °F -  
Max Temperature 48 °F 40 °F 69 °F (1984)
Min Temperature 27 °F 24 °F 1 °F (1961)
Degree Days  
Heating Degree Days 28    
Moisture  
Dew Point 32 °F    
Average Humidity 80    
Maximum Humidity 100    
Minimum Humidity 59    
Precipitation  
Precipitation 0.00 in - - ()
Sea Level Pressure  
Sea Level Pressure 30.15 in    
Wind  
Wind Speed 8 mph (South)    
Max Wind Speed 10 mph    
Max Gust Speed -    
Visibility 10 miles    
Events      
Averages and records for this station are not official NWS values.
T = Trace of Precipitation, MM = Missing Value Source: NWS Daily Summary

Daily Weather History Graph

Daily Weather History Graph

Search for Another Location

Airport or City:

Trip Planner

Search our weather history database for the weather conditions in past years. The results will help you decide how hot, cold, wet, or windy it might be!

Date:

Astronomy

Dec. 28, 2013 Rise Set
Actual Time 7:10 AM CST 4:40 PM CST
Civil Twilight 6:41 AM CST 5:10 PM CST
Nautical Twilight 6:07 AM CST 5:43 PM CST
Astronomical Twilight 5:35 AM CST 6:15 PM CST
Moon 2:49 AM CST (12/28) 1:29 PM CST (12/28)
Length of Visible Light 10h 28m
Length of Day
9h 29m
Waning Crescent, 19% of the Moon is Illuminated
Dec 28
Waning Crescent
Jan 1
New
Jan 7
First Quarter
Jan 15
Full
Jan 23
Last Quarter

Hourly Weather History & Observations

Time (CST) Temp. Windchill Dew Point Humidity Pressure Visibility Wind Dir Wind Speed Gust Speed Precip Events Conditions
12:15 AM 34.3 °F 26.5 °F 32.0 °F 91% 30.27 in 10.0 mi SSW 10.4 mph - N/A   Clear
12:35 AM 35.6 °F 28.0 °F 32.0 °F 87% 30.27 in 10.0 mi SSW 10.4 mph - N/A   Clear
12:55 AM 34.7 °F 27.5 °F 31.8 °F 89% 30.27 in 10.0 mi SSW 9.2 mph - N/A   Clear
1:15 AM 33.1 °F 26.1 °F 30.7 °F 91% 30.27 in 10.0 mi SSW 8.1 mph - N/A   Clear
1:35 AM 32.2 °F 25.0 °F 30.2 °F 92% 30.27 in 10.0 mi SSW 8.1 mph - N/A   Clear
2:15 AM 32.0 °F 23.6 °F 30.6 °F 94% 30.27 in 10.0 mi SSW 10.4 mph - N/A   Clear
2:35 AM 33.1 °F 25.5 °F 31.3 °F 93% 30.27 in 10.0 mi SSW 9.2 mph - N/A   Clear
2:55 AM 33.3 °F 26.4 °F 31.5 °F 93% 30.27 in 10.0 mi SSW 8.1 mph - N/A   Clear
3:15 AM 32.4 °F 25.3 °F 30.6 °F 93% 30.27 in 10.0 mi SSW 8.1 mph - N/A   Clear
3:35 AM 31.3 °F 26.6 °F 29.5 °F 93% 30.26 in 10.0 mi South 4.6 mph - N/A   Clear
3:55 AM 30.0 °F 24.1 °F 28.9 °F 96% 30.26 in 10.0 mi South 5.8 mph - N/A   Clear
4:15 AM 29.5 °F 22.5 °F 28.9 °F 98% 30.26 in 10.0 mi South 6.9 mph - N/A   Clear
4:35 AM 27.5 °F 21.1 °F 26.8 °F 97% 30.25 in 7.0 mi South 5.8 mph - N/A   Clear
4:55 AM 28.4 °F 23.3 °F 28.0 °F 99% 30.25 in 7.0 mi South 4.6 mph - N/A   Clear
5:15 AM 28.8 °F 23.7 °F 28.4 °F 99% 30.25 in 7.0 mi South 4.6 mph - N/A   Clear
5:35 AM 28.2 °F 22.0 °F 28.2 °F 100% 30.25 in 7.0 mi South 5.8 mph - N/A   Clear
5:55 AM 28.8 °F 23.7 °F 28.6 °F 99% 30.25 in 7.0 mi South 4.6 mph - N/A   Clear
6:15 AM 30.2 °F 25.4 °F 30.0 °F 99% 30.24 in 7.0 mi South 4.6 mph - N/A   Clear
6:35 AM 28.2 °F 22.0 °F 27.7 °F 98% 30.24 in 7.0 mi South 5.8 mph - N/A   Clear
6:55 AM 28.4 °F 22.2 °F 28.2 °F 99% 30.24 in 7.0 mi South 5.8 mph - N/A   Clear
7:15 AM 27.9 °F 21.5 °F 27.7 °F 99% 30.24 in 7.0 mi SSW 5.8 mph - N/A   Clear
7:35 AM 28.9 °F 23.9 °F 28.6 °F 99% 30.24 in 7.0 mi South 4.6 mph - N/A   Clear
7:55 AM 30.0 °F 24.1 °F 29.3 °F 97% 30.24 in 7.0 mi SSW 5.8 mph - N/A   Clear
8:15 AM 33.4 °F 27.3 °F 32.0 °F 94% 30.24 in 10.0 mi SSW 6.9 mph - N/A   Clear
8:35 AM 34.3 °F 29.2 °F 32.7 °F 94% 30.24 in 10.0 mi SSW 5.8 mph - N/A   Clear
8:55 AM 36.1 °F 30.6 °F 33.1 °F 89% 30.24 in 10.0 mi SSW 6.9 mph - N/A   Clear
9:15 AM 39.2 °F 35.0 °F 34.2 °F 82% 30.23 in 10.0 mi SSW 5.8 mph - N/A   Clear
9:35 AM 40.5 °F 37.3 °F 34.2 °F 78% 30.23 in 10.0 mi South 4.6 mph - N/A   Clear
9:55 AM 41.4 °F 36.8 °F 34.7 °F 77% 30.23 in 10.0 mi South 6.9 mph - N/A   Clear
10:15 AM 43.0 °F 38.2 °F 34.0 °F 71% 30.22 in 10.0 mi South 8.1 mph - N/A   Clear
10:35 AM 45.0 °F 41.8 °F 34.9 °F 68% 30.22 in 10.0 mi South 5.8 mph - N/A   Clear
10:55 AM 46.4 °F 41.9 °F 35.6 °F 66% 30.22 in 10.0 mi South 9.2 mph - N/A   Clear
11:15 AM 46.6 °F - 35.2 °F 65% 30.21 in 10.0 mi South 8.1 mph - N/A   Clear
11:35 AM 47.5 °F - 34.9 °F 62% 30.20 in 10.0 mi South 10.4 mph - N/A   Clear
11:55 AM 48.2 °F - 34.5 °F 59% 30.19 in 10.0 mi South 9.2 mph - N/A   Clear
12:15 PM 48.2 °F - 34.5 °F 59% 30.18 in 10.0 mi South 9.2 mph - N/A   Clear
12:35 PM 48.4 °F - 35.6 °F 61% 30.17 in 10.0 mi South 6.9 mph - N/A   Clear
12:55 PM 48.0 °F - 35.4 °F 62% 30.15 in 10.0 mi South 9.2 mph - N/A   Clear
1:15 PM 47.5 °F - 34.7 °F 61% 30.15 in 10.0 mi South 9.2 mph - N/A   Clear
1:35 PM 47.7 °F - 34.5 °F 60% 30.14 in 10.0 mi South 10.4 mph - N/A   Clear
1:55 PM 47.5 °F - 34.7 °F 61% 30.13 in 10.0 mi South 9.2 mph - N/A   Clear
2:15 PM 46.9 °F - 35.8 °F 65% 30.12 in 10.0 mi South 8.1 mph - N/A   Clear
2:35 PM 47.8 °F - 34.3 °F 60% 30.12 in 10.0 mi South 8.1 mph - N/A   Clear
2:55 PM 48.2 °F - 34.5 °F 59% 30.11 in 10.0 mi South 8.1 mph - N/A   Clear
3:15 PM 46.4 °F 43.5 °F 35.2 °F 65% 30.11 in 10.0 mi South 5.8 mph - N/A   Clear
3:35 PM 45.5 °F 42.5 °F 35.6 °F 68% 30.10 in 10.0 mi South 5.8 mph - N/A   Clear
3:55 PM 43.2 °F 39.7 °F 35.6 °F 75% 30.10 in 10.0 mi SSE 5.8 mph - N/A   Clear
4:15 PM 42.1 °F 37.7 °F 34.7 °F 75% 30.10 in 10.0 mi SSE 6.9 mph - N/A   Clear
4:35 PM 41.7 °F 36.1 °F 34.2 °F 75% 30.09 in 10.0 mi South 9.2 mph - N/A   Clear
4:55 PM 41.4 °F 38.4 °F 33.4 °F 73% 30.09 in 10.0 mi South 4.6 mph - N/A   Clear
5:15 PM 41.4 °F 36.2 °F 32.7 °F 71% 30.09 in 10.0 mi South 8.1 mph - N/A   Clear
5:35 PM 41.4 °F 35.7 °F 32.0 °F 69% 30.08 in 10.0 mi South 9.2 mph - N/A   Clear
5:55 PM 40.5 °F 35.1 °F 31.8 °F 71% 30.08 in 10.0 mi South 8.1 mph - N/A   Clear
6:15 PM 40.1 °F 34.7 °F 31.8 °F 72% 30.06 in 10.0 mi South 8.1 mph - N/A   Clear
6:35 PM 38.8 °F 33.2 °F 31.8 °F 76% 30.07 in 10.0 mi South 8.1 mph - N/A   Clear
6:55 PM 39.7 °F 34.9 °F 31.8 °F 73% 30.06 in 10.0 mi South 6.9 mph - N/A   Clear
7:15 PM 37.8 °F 32.5 °F 32.0 °F 80% 30.05 in 10.0 mi SSE 6.9 mph - N/A   Clear
7:35 PM 37.4 °F 32.8 °F 31.5 °F 79% 30.04 in 10.0 mi South 5.8 mph - N/A   Clear
7:55 PM 37.6 °F 32.3 °F 31.6 °F 79% 30.04 in 10.0 mi South 6.9 mph - N/A   Clear
8:15 PM 37.8 °F 31.8 °F 31.8 °F 79% 30.03 in 10.0 mi SSE 8.1 mph - N/A   Clear
8:35 PM 38.3 °F 34.8 °F 31.8 °F 77% 30.02 in 10.0 mi South 4.6 mph - N/A   Clear
8:55 PM 38.7 °F 34.3 °F 31.8 °F 76% 30.01 in 10.0 mi South 5.8 mph - N/A   Clear
9:15 PM 37.9 °F - 31.3 °F 77% 30.00 in 10.0 mi Calm Calm - N/A   Clear
9:35 PM 37.2 °F 33.6 °F 31.1 °F 79% 30.00 in 10.0 mi South 4.6 mph - N/A   Clear
9:55 PM 38.1 °F 32.9 °F 31.8 °F 78% 30.00 in 10.0 mi South 6.9 mph - N/A   Clear
10:15 PM 37.8 °F 32.5 °F 32.0 °F 80% 30.00 in 10.0 mi South 6.9 mph - N/A   Clear
10:35 PM 39.2 °F 34.2 °F 31.6 °F 74% 29.99 in 10.0 mi South 6.9 mph - N/A   Clear
10:55 PM 38.8 °F 33.8 °F 32.0 °F 76% 29.99 in 10.0 mi South 6.9 mph - N/A   Clear
11:15 PM 37.9 °F 33.5 °F 32.0 °F 79% 29.97 in 10.0 mi South 5.8 mph - N/A   Clear
11:35 PM 38.8 °F 36.5 °F 32.0 °F 76% 29.96 in 10.0 mi South 3.5 mph - N/A   Clear
11:55 PM 38.8 °F - 31.6 °F 75% 29.95 in 10.0 mi Calm Calm - N/A   Clear